Home > Weather > Stendal > Past weeks

Flag for Germany Past Weather in Stendal, Saxony-Anhalt, Germany — Yesterday and Last 2 Weeks

Now
57 °F

Clear.


Feels Like: 57 °F
Forecast: 56 / 76 °F
Wind: No wind

Location: Berlin-Tegel

Current Time: Jun 30, 2016 at 3:45:26 AM

Latest Report: Jun 30, 2016 at 3:20 AM


Visibility: 10 mi

Pressure: 29.92 "Hg

Humidity: 77%

Dew Point: 50 °F

Location of StendalLocation

Past Weather in Stendal — Graph

°F

Stendal Temperature Yesterday

Maximum temperature yesterday: 77 °F (at 1:50 PM)
Minimum temperature yesterday: 57 °F (at 1:20 AM)
Average temperature yesterday: 68 °F

High & Low Weather Summary for the Past Weeks

 TemperatureHumidityPressure
High95 °F (Jun 24, 3:50 PM)94% (Jun 15, 11:20 PM)30.24 "Hg (Jun 15, 11:20 PM)
Low48 °F (Jun 20, 4:50 AM)23% (Jun 24, 4:20 PM)29.50 "Hg (Jun 15, 2:20 AM)
Average68 °F64%29.94 "Hg
* Reported Jun 15 2:20 AM — Jun 30 2:20 AM, Stendal, Weather by CustomWeather, © 2016

Note: Actual official high and low records may vary slightly from our data, if they occured in-between our weather recording intervals... More about our weather records

Advertising

Stendal Weather History for the Previous 24 Hours

Scroll right to see more
 ConditionsComfort  
Time TempWeatherWind HumidityBarometerVisibility
2:20 AM
Thu, Jun 30
57 °FClear.1 mph72%29.92 "Hg10 mi
1:20 AM59 °FClear.2 mph68%29.92 "Hg10 mi
12:50 AM61 °FClear.1 mph63%29.92 "Hg10 mi
12:20 AM61 °FClear.No wind63%29.92 "Hg10 mi
11:50 PM
Wed, Jun 29
61 °FClear.1 mph63%29.92 "Hg10 mi
11:20 PM63 °FClear.1 mph56%29.92 "Hg10 mi
10:50 PM63 °FClear.1 mph59%29.92 "Hg10 mi
10:20 PM66 °FSunny.2 mph49%29.92 "Hg10 mi
9:50 PM66 °FSunny.3 mph49%29.92 "Hg10 mi
9:20 PM68 °FPassing clouds.3 mph43%29.89 "HgN/A
8:50 PM70 °FPassing clouds.6 mph38%29.89 "HgN/A
8:20 PM70 °FPassing clouds.9 mph38%29.89 "HgN/A
7:50 PM72 °FPassing clouds.9 mph36%29.89 "HgN/A
7:20 PM73 °FPassing clouds.12 mph33%29.86 "HgN/A
6:20 PM75 °FPassing clouds.12 mph36%29.86 "HgN/A
5:50 PM75 °FPassing clouds.16 mph31%29.86 "HgN/A
5:20 PM77 °FPassing clouds.13 mph34%29.86 "HgN/A
4:50 PM77 °FSunny.17 mph32%29.86 "Hg10 mi
4:20 PM77 °FPassing clouds.18 mph39%29.86 "HgN/A
3:20 PM75 °FSunny.17 mph39%29.86 "Hg10 mi
2:50 PM77 °FPassing clouds.18 mph39%29.83 "HgN/A
2:20 PM77 °FPassing clouds.16 mph39%29.83 "HgN/A
1:50 PM77 °FPassing clouds.21 mph39%29.83 "HgN/A
1:20 PM75 °FPassing clouds.17 mph44%29.83 "HgN/A
12:50 PM73 °FPassing clouds.13 mph57%29.83 "HgN/A
12:20 PM72 °FScattered showers. Scattered clouds.16 mph53%29.83 "HgN/A
11:50 AM73 °FScattered showers. Scattered clouds.16 mph53%29.83 "HgN/A
11:20 AM73 °FBroken clouds.17 mph53%29.83 "HgN/A
10:20 AM72 °FScattered clouds.15 mph65%29.83 "HgN/A
9:50 AM68 °FScattered clouds.13 mph73%29.83 "HgN/A
9:20 AM66 °FPartly sunny.10 mph78%29.83 "HgN/A
8:50 AM64 °FPartly sunny.14 mph78%29.83 "HgN/A
8:20 AM64 °FPartly sunny.10 mph78%29.83 "HgN/A
7:50 AM63 °FLight rain. Partly sunny.9 mph77%29.86 "HgN/A
7:20 AM61 °FLight rain. Partly sunny.10 mph83%29.86 "HgN/A
6:50 AM61 °FPartly sunny.8 mph77%29.86 "HgN/A
6:20 AM61 °FPartly sunny.6 mph72%29.86 "HgN/A
5:20 AM63 °FPassing clouds.3 mph59%29.86 "HgN/A
4:50 AM63 °FLight rain. Clear.6 mph56%29.86 "HgN/A
4:20 AM61 °FClear.5 mph59%29.89 "Hg10 mi
3:50 AM61 °FClear.3 mph59%29.92 "Hg10 mi
3:20 AM59 °FPassing clouds.3 mph68%29.92 "HgN/A
Weather by CustomWeather, © 2016

See weather overviewHow to use our weather pages